Weather in Plekhany

Russia / Saratov Oblast     51°58′13″N   47°21′39″E
temp.,
°C
wind,
m/s
gust,
m/s
humid.,
%
clouds,
%
prec.,
mm/h
press.,
hPa
HPBL,
m
27 july, tue
tue2701:00+16nw11560 0.0 102211
04:00+17nw22544 0.0 102214
07:00+19wnw125190 0.0 102197
10:00+24w34384 0.0 1021873
13:00+27wnw453249 0.0 10192664
16:00+25nw564054 0.0 10181207
19:00+26nnw46409 0.0 10171563
22:00+19nnw22585 0.0 101811
28 july, wed
wed2801:00+17nw22645 0.0 101714
04:00+16nw22704 0.0 101714
07:00+19nw23610 0.0 1017105
10:00+25nnw234438 0.0 1017909
13:00+28nw353370 0.0 10162787
16:00+27nnw343666 0.0 10151485
19:00+26nne4539100 0.0 1014447
22:00+21se225297 0.0 101522
29 july, thu
thu2901:00+21s2252100 0.0 101434
04:00+19s2256100 0.0 101313
07:00+21s2552100 0.1 1012168
10:00+23se2247100 0.1 1011137
13:00+25sw4941100 0.0 1009641
16:00+32wsw8123196 0.0 10073176
19:00+29wsw5104317 0.1 10061478
22:00+24wnw3562100 0.5 100785
30 july, fri
fri3001:00+21wnw2270100 0.0 100721
04:00+20w2275100 0.0 100819
07:00+22w236859 0.1 1009103
10:00+28w454690 0.1 1009887
13:00+32w463590 0.0 10082580
16:00+28sw575072 0.7 1008884
19:00+24nnw23676 0.4 1008141
22:00+19ssw2291100 3.1 100933
31 july, sat
sat3101:00+20ssw118496 0.4 100911
04:00+20n1187100 0.4 100911
07:00+21ssw238385 0.0 1010119
10:00+26s3464100 0.1 1010598
13:00+31ssw4542100 0.0 10091736
16:00+33sw563676 0.0 10072560
19:00+31wsw46426 0.1 10071260
22:00+24nw336520 0.2 100830